Tracking 28920 objects as of 26-May-2024
HD Live streaming from Space Station
objects crossing your sky now

YUNHAI 2 4

Track YUNHAI 2 4 now!
10-day predictions


NORAD ID: 43912
Int'l Code: 2018-112D
Perigee: 793.2 km
Apogee: 815.8 km
Inclination: 50.0 °
Period: 100.8 minutes
Semi major axis: 7175 km
RCS: Unknown
Launch date: December 29, 2018
Source: People's Republic of China (PRC)
Launch site: Jiuquan Satellite Launch Center, China (JSC)
Your satellite tracking list
Your tracking list is empty




NASA's NSSDC Master Catalog

Two Line Element Set (TLE):
1 43912U 18112D   24147.56850474  .00000340  00000-0  19924-3 0  9994
2 43912  50.0116 236.4134 0015762 227.4914 132.4670 14.28326386280126
Source of the keplerian elements: AFSPC